• In Moldova, Republic
  • List of Countries
  • For 7 days
  • Water Temperature
  • Satellite Maps
  • Weather Map
  • Weather Widgets
  • user-avatar
    Login

    Hourly Weather Brisbane

    Today, 24 March, Friday

    Time Temperature Precipitation Wind Pressure Humidity
    00:00 +24°C° 0.3 mm 1 mps 760 mmHg 93%
    01:00 +23°C° 0.3 mm 2 mps 760 mmHg 93%
    02:00 +23°C° 0.2 mm 2 mps 760 mmHg 93%
    03:00 +23°C° 0.2 mm 2 mps 759 mmHg 94%
    04:00 +23°C° 0 mm 2 mps 759 mmHg 95%
    05:00 +23°C° 0.3 mm 2 mps 759 mmHg 93%
    06:00 +24°C° 0.3 mm 2 mps 759 mmHg 91%
    07:00 +24°C° 0.3 mm 3 mps 760 mmHg 89%
    08:00 +26°C° 0.3 mm 3 mps 760 mmHg 81%
    09:00 +28°C° 0.3 mm 3 mps 760 mmHg 73%
    10:00 +30°C° 0 mm 2 mps 760 mmHg 65%
    11:00 +30°C° 0.3 mm 3 mps 760 mmHg 65%
    12:00 +31°C° 0.3 mm 3 mps 759 mmHg 65%
    13:00 +32°C° 0.3 mm 4 mps 759 mmHg 64%
    14:00 +30°C° 0.5 mm 4 mps 759 mmHg 67%
    15:00 +30°C° 0.5 mm 4 mps 758 mmHg 71%
    16:00 +29°C° 0.5 mm 5 mps 758 mmHg 74%
    17:00 +27°C° 0.3 mm 4 mps 759 mmHg 79%
    18:00 +26°C° 0.3 mm 4 mps 759 mmHg 84%
    19:00 +25°C° 0.3 mm 4 mps 759 mmHg 90%
    20:00 +24°C° 0.1 mm 3 mps 760 mmHg 91%
    21:00 +24°C° 0.1 mm 3 mps 760 mmHg 91%
    22:00 +24°C° 0.1 mm 3 mps 760 mmHg 92%
    23:00 +23°C° 0.1 mm 4 mps 760 mmHg 92%

    Tomorrow, 25 March, Saturday

    Time Temperature Precipitation Wind Pressure Humidity
    00:00 +22°C° 0.1 mm 4 mps 760 mmHg 93%
    01:00 +22°C° 0.1 mm 4 mps 760 mmHg 93%
    02:00 +22°C° 0.1 mm 4 mps 760 mmHg 93%
    03:00 +22°C° 0.1 mm 4 mps 760 mmHg 93%
    04:00 +22°C° 0.1 mm 4 mps 760 mmHg 93%
    05:00 +22°C° 0.1 mm 4 mps 760 mmHg 91%
    06:00 +23°C° 0.1 mm 4 mps 760 mmHg 90%
    07:00 +23°C° 0.1 mm 5 mps 760 mmHg 88%
    08:00 +26°C° 0.1 mm 5 mps 760 mmHg 82%
    09:00 +27°C° 0.1 mm 5 mps 760 mmHg 77%
    10:00 +28°C° 0.1 mm 5 mps 761 mmHg 71%
    11:00 +29°C° 0.2 mm 5 mps 760 mmHg 69%
    12:00 +29°C° 0.2 mm 6 mps 760 mmHg 68%
    13:00 +30°C° 0.2 mm 6 mps 759 mmHg 67%
    14:00 +29°C° 0.1 mm 6 mps 759 mmHg 69%
    15:00 +29°C° 0.1 mm 6 mps 759 mmHg 71%
    16:00 +28°C° 0.1 mm 6 mps 758 mmHg 72%
    17:00 +27°C° 0 mm 5 mps 759 mmHg 77%
    18:00 +26°C° 0 mm 4 mps 759 mmHg 82%
    19:00 +23°C° 0 mm 4 mps 760 mmHg 87%
    20:00 +24°C° 0 mm 3 mps 760 mmHg 89%
    21:00 +24°C° 0 mm 3 mps 761 mmHg 90%
    22:00 +23°C° 0 mm 2 mps 761 mmHg 92%
    23:00 +23°C° 0 mm 2 mps 761 mmHg 92%

    Day after tomorrow, 26 March, Sunday

    Time Temperature Precipitation Wind Pressure Humidity
    00:00 +23°C° 0 mm 2 mps 760 mmHg 91%
    01:00 +23°C° 0 mm 1 mps 760 mmHg 91%
    02:00 +23°C° 0 mm 1 mps 760 mmHg 91%
    03:00 +23°C° 0 mm 1 mps 759 mmHg 90%
    04:00 +23°C° 0 mm 1 mps 759 mmHg 89%
    05:00 +24°C° 0 mm 1 mps 760 mmHg 88%
    06:00 +24°C° 0 mm 1 mps 760 mmHg 88%
    07:00 +24°C° 0 mm 1 mps 760 mmHg 87%
    08:00 +26°C° 0 mm 1 mps 760 mmHg 80%
    09:00 +28°C° 0 mm 2 mps 760 mmHg 73%
    10:00 +29°C° 0 mm 2 mps 761 mmHg 66%
    11:00 +30°C° 0 mm 2 mps 760 mmHg 64%
    12:00 +30°C° 0 mm 2 mps 759 mmHg 62%
    13:00 +31°C° 0 mm 3 mps 759 mmHg 60%
    14:00 +31°C° 0 mm 3 mps 758 mmHg 63%
    15:00 +30°C° 0 mm 3 mps 758 mmHg 65%
    16:00 +30°C° 0 mm 4 mps 758 mmHg 67%
    17:00 +28°C° 0 mm 3 mps 758 mmHg 73%
    18:00 +27°C° 0 mm 3 mps 759 mmHg 78%
    19:00 +26°C° 0 mm 3 mps 759 mmHg 83%
    20:00 +26°C° 0 mm 2 mps 760 mmHg 84%
    21:00 +25°C° 0 mm 2 mps 760 mmHg 85%
    22:00 +25°C° 0 mm 2 mps 761 mmHg 86%
    23:00 +25°C° 0 mm 2 mps 760 mmHg 88%

    27 March, Monday

    Time Temperature Precipitation Wind Pressure Humidity
    00:00 +25°C° 0 mm 2 mps 760 mmHg 89%
    01:00 +24°C° 0 mm 1 mps 760 mmHg 91%
    02:00 +24°C° 0 mm 2 mps 760 mmHg 92%
    03:00 +24°C° 0 mm 2 mps 759 mmHg 93%
    04:00 +23°C° 0 mm 2 mps 759 mmHg 93%
    05:00 +24°C° 0 mm 2 mps 760 mmHg 91%
    06:00 +25°C° 0 mm 2 mps 760 mmHg 88%
    07:00 +25°C° 0 mm 2 mps 760 mmHg 86%
    08:00 +26°C° 0.1 mm 3 mps 760 mmHg 80%
    09:00 +28°C° 0.1 mm 3 mps 761 mmHg 75%
    10:00 +29°C° 0.1 mm 4 mps 761 mmHg 70%
    11:00 +29°C° 0.1 mm 4 mps 760 mmHg 68%
    12:00 +29°C° 0.1 mm 4 mps 760 mmHg 66%
    13:00 +30°C° 0.1 mm 4 mps 759 mmHg 65%
    14:00 +29°C° 0 mm 4 mps 759 mmHg 65%
    15:00 +29°C° 0 mm 4 mps 758 mmHg 66%
    16:00 +29°C° 0 mm 4 mps 758 mmHg 67%
    17:00 +27°C° 0 mm 4 mps 759 mmHg 73%
    18:00 +26°C° 0 mm 4 mps 759 mmHg 79%
    19:00 +24°C° 0 mm 3 mps 759 mmHg 86%
    20:00 +24°C° 0 mm 3 mps 760 mmHg 87%
    21:00 +23°C° 0 mm 2 mps 760 mmHg 89%
    22:00 +23°C° 0 mm 2 mps 760 mmHg 91%
    23:00 +21°C° 0 mm 2 mps 760 mmHg 91%

    28 March, Tuesday

    Time Temperature Precipitation Wind Pressure Humidity
    00:00 +22°C° 0 mm 1 mps 760 mmHg 91%
    01:00 +22°C° 0 mm 1 mps 759 mmHg 91%
    02:00 +22°C° 0 mm 1 mps 759 mmHg 91%
    03:00 +22°C° 0 mm 1 mps 759 mmHg 91%
    04:00 +21°C° 0 mm 1 mps 758 mmHg 91%
    05:00 +22°C° 0 mm 1 mps 759 mmHg 89%
    06:00 +23°C° 0 mm 1 mps 759 mmHg 86%
    07:00 +24°C° 0 mm 1 mps 760 mmHg 83%
    08:00 +26°C° 0 mm 1 mps 760 mmHg 76%
    09:00 +27°C° 0 mm 2 mps 760 mmHg 69%
    10:00 +29°C° 0 mm 2 mps 760 mmHg 62%
    11:00 +30°C° 0 mm 2 mps 759 mmHg 59%
    12:00 +31°C° 0 mm 3 mps 759 mmHg 56%
    13:00 +31°C° 0 mm 3 mps 758 mmHg 53%
    14:00 +31°C° 0 mm 3 mps 758 mmHg 56%
    15:00 +30°C° 0 mm 4 mps 757 mmHg 59%
    16:00 +29°C° 0 mm 4 mps 757 mmHg 62%
    17:00 +27°C° 0 mm 4 mps 758 mmHg 70%
    18:00 +26°C° 0 mm 3 mps 758 mmHg 78%
    19:00 +24°C° 0 mm 3 mps 759 mmHg 86%
    20:00 +22°C° 0 mm 3 mps 759 mmHg 88%
    21:00 +21°C° 0 mm 2 mps 760 mmHg 90%
    22:00 +21°C° 0 mm 2 mps 760 mmHg 93%
    23:00 +21°C° 0 mm 1 mps 760 mmHg 93%

    29 March, Wednesday

    Time Temperature Precipitation Wind Pressure Humidity
    00:00 +21°C° 0 mm 1 mps 759 mmHg 93%
    01:00 +21°C° 0 mm 1 mps 759 mmHg 94%
    02:00 +21°C° 0 mm 1 mps 759 mmHg 94%
    03:00 +21°C° 0 mm 1 mps 759 mmHg 94%
    04:00 +21°C° 0 mm 1 mps 759 mmHg 94%
    05:00 +22°C° 0 mm 1 mps 759 mmHg 91%
    06:00 +23°C° 0 mm 1 mps 760 mmHg 88%
    07:00 +24°C° 0 mm 2 mps 760 mmHg 86%
    08:00 +26°C° 0 mm 2 mps 760 mmHg 79%
    09:00 +27°C° 0 mm 3 mps 760 mmHg 72%
    10:00 +28°C° 0 mm 3 mps 760 mmHg 65%
    11:00 +29°C° 0 mm 3 mps 760 mmHg 62%
    12:00 +29°C° 0 mm 4 mps 759 mmHg 60%
    13:00 +30°C° 0 mm 4 mps 759 mmHg 58%
    14:00 +29°C° 0 mm 4 mps 759 mmHg 60%
    15:00 +29°C° 0 mm 4 mps 759 mmHg 62%
    16:00 +28°C° 0 mm 4 mps 759 mmHg 64%
    17:00 +27°C° 0 mm 4 mps 759 mmHg 70%
    18:00 +25°C° 0 mm 4 mps 759 mmHg 76%
    19:00 +22°C° 0 mm 3 mps 760 mmHg 83%
    20:00 +22°C° 0 mm 3 mps 760 mmHg 84%
    21:00 +22°C° 0 mm 3 mps 760 mmHg 84%
    22:00 +21°C° 0 mm 2 mps 760 mmHg 85%
    23:00 +21°C° 0 mm 2 mps 760 mmHg 85%
    Show more